Regional Weather Roundup
Issued by NWS Mt. Holly, NJ

Home | Current Version | Previous Version | Text Only | Print | Product List | Glossary On
Versions: 1 2 3 4 5 6 7 8 9 10 11 12 13 14 15 16 17 18 19 20 21 22 23 24 25 26 27 28
000
ASUS41 KPHI 311012
RWRPHI

REGIONAL WEATHER ROUNDUP
NATIONAL WEATHER SERVICE MOUNT HOLLY NJ
600 AM EDT TUE MAY 31 2016

NOTE:  "FAIR" INDICATES FEW OR NO CLOUDS BELOW 12,000 FEET WITH NO
SIGNIFICANT WEATHER AND/OR OBSTRUCTIONS TO VISIBILITY.

 * = STATION DOES NOT REPORT PRECIPITATION (E.G. RAIN, SNOW, ETC.)
        OR FOG.

NJZ015>026-311100-
SOUTHERN NEW JERSEY

CITY           SKY/WX    TMP DP  RH WIND       PRES   REMARKS
POMONA         FOG       68  67  96 CALM      29.96R VSB 1
WILDWOOD*      CLOUDY   N/A N/A N/A SE3       29.96S
MILLVILLE      FOG       67  66  97 CALM      29.96R VSB 1/4
WRIGHTSTOWN    CLOUDY    69  68  98 SW5       29.93S
MOUNT HOLLY    CLOUDY    69  67  93 CALM      29.94S
TRENTON        CLOUDY    70  66  87 SW3       29.94R

$$
NJZ001>014-311100-
NORTHERN NEW JERSEY

CITY           SKY/WX    TMP DP  RH WIND       PRES   REMARKS
SUSSEX         CLOUDY    62  60  93 CALM      29.96R
ANDOVER*         N/A     64  62  93 CALM      29.96S
MORRISTOWN     FOG       66  64  94 CALM      29.94S VSB<1/4
NEWARK         CLOUDY    71  68  90 SW5       29.93S
TETERBORO      CLOUDY    70  66  87 CALM      29.92R
CALDWELL       CLOUDY    69  67  93 CALM      29.94R
SOMERVILLE     FOG       64  63  96 CALM      29.93S VSB 3/4
ALLAIRE*       CLOUDY    68  68 100 SW3       29.96R
TOMS RIVER*    CLOUDY    68  64  88 S3        29.96R

$$
PAZ043-044-047-054-055-060>062-066>071-311100-
EASTERN PENNSYLVANIA

CITY           SKY/WX    TMP DP  RH WIND       PRES   REMARKS
PHILADELPHIA   CLOUDY    71  67  87 SW3       29.95S
NORTH PHILA    CLOUDY    72  67  84 CALM      29.96R
BLUE BELL*     MOCLDY    64  64 100 CALM      29.95R
DOYLESTOWN     MOCLDY    68  66  93 CALM      29.95R
QUAKERTOWN*    CLOUDY    66  66 100 CALM      29.97S
PERKASIE*      FAIR      66  66 100 CALM      29.97S
POTTSTOWN      CLOUDY    67  66  97 CALM      29.97S
LANCASTER      CLOUDY    66  65  96 CALM      29.96R
COATESVILLE    CLOUDY    68  66  94 NW5       29.98S FOG
READING        CLEAR     65  63  93 CALM      29.96R
ALLENTOWN      CLOUDY    65  62  90 W3        29.96R
MOUNT POCONO   CLOUDY    60  57  89 N7        29.99S
HAZLETON       FOG       59  59 100 CALM      30.03S VSB<1/4
LEHIGHTON      FOG       63  63 100 CALM      29.98S VSB<1/4
WILKES BARRE   FOG       61  61 100 CALM      29.99R VSB 1/2

$$
DEZALL-MDZ008-012-015-019-020-311100-
DELAWARE AND EASTERN MARYLAND

CITY           SKY/WX    TMP DP  RH WIND       PRES   REMARKS
WILMINGTON     MOCLDY    70  67  90 CALM      29.95S
DOVER          CLOUDY    68  68 100 S1        29.95R
GEORGETOWN     CLOUDY    67  66  97 CALM      29.96R
EASTON         CLOUDY    68  68 100 CALM      29.99R FOG
ABERDEEN       CLOUDY    70  68  94 CALM      29.95
PATUXENT       CLOUDY    68  66  93 W3        29.95R
OCEAN CITY     CLOUDY    65  65 100 CALM      29.95R FOG
WALLOPS ISLAND CLOUDY    69  69 100 CALM      29.94S
CAMBRIDGE        N/A     63  63 100 CALM      29.95S
SALISBURY      CLOUDY    66  66 100 CALM      29.95R

$$
PAZ001-021-NYZ056-072-MDZ011-DCZ001-311100-
OTHER NEARBY LOCATIONS

CITY           SKY/WX    TMP DP  RH WIND       PRES   REMARKS
HARRISBURG     CLOUDY    67  64  90 N7        29.96R FOG
STATE COLLEGE  CLEAR     57  57 100 CALM      30.01R
WILLIAMSPORT   CLOUDY    63  61  93 NW6       29.99R FOG
BINGHAMTON     CLEAR     59  51  75 CALM      30.00R
NEW YORK CITY  CLOUDY    72  67  84 VRB3      29.96R
BALTIMORE      PTCLDY    67  65  93 CALM      29.94S
WASHINGTON DC  CLOUDY    72  64  76 NW5       29.95S

$$




USA.gov is the U.S. government's official web portal to all federal, state and local government web resources and services.